• In Netherlands
  • List of Countries
  • For 7 days
  • Water Temperature
  • Satellite Maps
  • Weather Map
  • Weather Widgets
  • user-avatar
    Login

    Hourly Weather La Esperanza

    Today, 18 February, Sunday

    Time Temperature Precipitation Wind Pressure Humidity
    00:00 +12°C° 0 mm 1 mps 618 mmHg 89%
    01:00 +12°C° 0 mm 1 mps 618 mmHg 90%
    02:00 +12°C° 0 mm 1 mps 618 mmHg 91%
    03:00 +12°C° 0 mm 1 mps 617 mmHg 92%
    04:00 +12°C° 0 mm 1 mps 617 mmHg 92%
    05:00 +12°C° 0 mm 1 mps 617 mmHg 91%
    06:00 +11°C° 0 mm 1 mps 617 mmHg 91%
    07:00 +14°C° 0 mm 1 mps 618 mmHg 81%
    08:00 +16°C° 0 mm 1 mps 620 mmHg 70%
    09:00 +18°C° 0 mm 2 mps 621 mmHg 60%
    10:00 +20°C° 0 mm 2 mps 621 mmHg 53%
    11:00 +21°C° 0 mm 2 mps 621 mmHg 46%
    12:00 +24°C° 0 mm 3 mps 622 mmHg 39%
    13:00 +24°C° 0 mm 3 mps 621 mmHg 39%
    14:00 +24°C° 0 mm 3 mps 620 mmHg 39%
    15:00 +24°C° 0 mm 3 mps 619 mmHg 39%
    16:00 +21°C° 0 mm 2 mps 619 mmHg 47%
    17:00 +19°C° 0 mm 2 mps 618 mmHg 55%
    18:00 +18°C° 0 mm 1 mps 618 mmHg 63%
    19:00 +16°C° 0 mm 2 mps 618 mmHg 70%
    20:00 +14°C° 0 mm 2 mps 618 mmHg 77%
    21:00 +13°C° 0 mm 2 mps 618 mmHg 84%
    22:00 +13°C° 0 mm 2 mps 618 mmHg 86%
    23:00 +13°C° 0 mm 1 mps 617 mmHg 88%

    Tomorrow, 19 February, Monday

    Time Temperature Precipitation Wind Pressure Humidity
    00:00 +12°C° 0 mm 1 mps 617 mmHg 90%
    01:00 +12°C° 0 mm 1 mps 617 mmHg 90%
    02:00 +12°C° 0 mm 1 mps 617 mmHg 91%
    03:00 +11°C° 0 mm 1 mps 616 mmHg 92%
    04:00 +11°C° 0 mm 1 mps 616 mmHg 92%
    05:00 +11°C° 0 mm 1 mps 616 mmHg 91%
    06:00 +10°C° 0 mm 1 mps 616 mmHg 91%
    07:00 +13°C° 0 mm 1 mps 618 mmHg 77%
    08:00 +15°C° 0 mm 1 mps 619 mmHg 63%
    09:00 +19°C° 0 mm 1 mps 621 mmHg 48%
    10:00 +20°C° 0 mm 2 mps 621 mmHg 44%
    11:00 +21°C° 0 mm 2 mps 621 mmHg 40%
    12:00 +24°C° 0 mm 2 mps 621 mmHg 36%
    13:00 +24°C° 0 mm 2 mps 620 mmHg 37%
    14:00 +24°C° 0 mm 2 mps 620 mmHg 38%
    15:00 +24°C° 0 mm 2 mps 619 mmHg 39%
    16:00 +21°C° 0 mm 2 mps 618 mmHg 46%
    17:00 +19°C° 0 mm 2 mps 618 mmHg 52%
    18:00 +18°C° 0 mm 1 mps 617 mmHg 59%
    19:00 +16°C° 0 mm 1 mps 617 mmHg 66%
    20:00 +15°C° 0 mm 1 mps 617 mmHg 72%
    21:00 +13°C° 0 mm 1 mps 617 mmHg 78%
    22:00 +13°C° 0 mm 1 mps 617 mmHg 80%
    23:00 +13°C° 0 mm 1 mps 617 mmHg 81%

    Day after tomorrow, 20 February, Tuesday

    Time Temperature Precipitation Wind Pressure Humidity
    00:00 +13°C° 0 mm 1 mps 617 mmHg 82%
    01:00 +13°C° 0 mm 1 mps 617 mmHg 84%
    02:00 +12°C° 0 mm 1 mps 616 mmHg 85%
    03:00 +12°C° 0 mm 1 mps 616 mmHg 87%
    04:00 +12°C° 0 mm 1 mps 616 mmHg 88%
    05:00 +11°C° 0 mm 1 mps 616 mmHg 89%
    06:00 +11°C° 0 mm 1 mps 616 mmHg 90%
    07:00 +14°C° 0 mm 1 mps 618 mmHg 77%
    08:00 +18°C° 0 mm 1 mps 619 mmHg 64%
    09:00 +21°C° 0 mm 1 mps 621 mmHg 51%
    10:00 +23°C° 0 mm 2 mps 621 mmHg 45%
    11:00 +24°C° 0 mm 2 mps 622 mmHg 38%
    12:00 +26°C° 0 mm 2 mps 622 mmHg 32%
    13:00 +26°C° 0 mm 2 mps 621 mmHg 33%
    14:00 +25°C° 0 mm 2 mps 620 mmHg 35%
    15:00 +25°C° 0 mm 2 mps 619 mmHg 36%
    16:00 +23°C° 0 mm 2 mps 619 mmHg 43%
    17:00 +20°C° 0 mm 2 mps 619 mmHg 49%
    18:00 +19°C° 0 mm 1 mps 618 mmHg 55%
    19:00 +18°C° 0 mm 1 mps 619 mmHg 63%
    20:00 +16°C° 0 mm 1 mps 619 mmHg 70%
    21:00 +15°C° 0 mm 1 mps 619 mmHg 77%
    22:00 +14°C° 0 mm 1 mps 619 mmHg 80%
    23:00 +14°C° 0 mm 1 mps 618 mmHg 83%

    21 February, Wednesday

    Time Temperature Precipitation Wind Pressure Humidity
    00:00 +13°C° 0 mm 1 mps 618 mmHg 86%
    01:00 +13°C° 0 mm 1 mps 618 mmHg 87%
    02:00 +13°C° 0 mm 1 mps 617 mmHg 89%
    03:00 +12°C° 0 mm 1 mps 617 mmHg 90%
    04:00 +12°C° 0 mm 1 mps 617 mmHg 90%
    05:00 +12°C° 0 mm 1 mps 617 mmHg 90%
    06:00 +12°C° 0 mm 1 mps 617 mmHg 90%
    07:00 +14°C° 0 mm 1 mps 619 mmHg 78%
    08:00 +17°C° 0 mm 2 mps 620 mmHg 65%
    09:00 +19°C° 0 mm 2 mps 621 mmHg 53%
    10:00 +21°C° 0 mm 2 mps 622 mmHg 46%
    11:00 +24°C° 0 mm 3 mps 622 mmHg 38%
    12:00 +25°C° 0 mm 3 mps 622 mmHg 31%
    13:00 +25°C° 0 mm 3 mps 621 mmHg 32%
    14:00 +25°C° 0 mm 3 mps 621 mmHg 33%
    15:00 +26°C° 0 mm 3 mps 620 mmHg 34%
    16:00 +24°C° 0 mm 3 mps 620 mmHg 42%
    17:00 +20°C° 0 mm 2 mps 619 mmHg 50%
    18:00 +18°C° 0 mm 2 mps 619 mmHg 58%
    19:00 +17°C° 0 mm 2 mps 619 mmHg 65%
    20:00 +15°C° 0 mm 1 mps 619 mmHg 73%
    21:00 +14°C° 0 mm 1 mps 619 mmHg 80%
    22:00 +14°C° 0 mm 1 mps 619 mmHg 83%
    23:00 +13°C° 0 mm 1 mps 619 mmHg 85%

    22 February, Thursday

    Time Temperature Precipitation Wind Pressure Humidity
    00:00 +13°C° 0 mm 1 mps 618 mmHg 87%
    01:00 +12°C° 0 mm 1 mps 618 mmHg 88%
    02:00 +12°C° 0 mm 1 mps 618 mmHg 89%
    03:00 +12°C° 0 mm 1 mps 617 mmHg 89%
    04:00 +12°C° 0 mm 1 mps 617 mmHg 89%
    05:00 +11°C° 0 mm 1 mps 618 mmHg 90%
    06:00 +11°C° 0 mm 1 mps 618 mmHg 90%
    07:00 +14°C° 0 mm 1 mps 619 mmHg 76%
    08:00 +16°C° 0 mm 2 mps 620 mmHg 63%
    09:00 +19°C° 0 mm 2 mps 622 mmHg 50%
    10:00 +21°C° 0 mm 2 mps 622 mmHg 46%
    11:00 +22°C° 0 mm 3 mps 622 mmHg 42%
    12:00 +25°C° 0 mm 3 mps 622 mmHg 38%
    13:00 +25°C° 0 mm 3 mps 622 mmHg 38%
    14:00 +25°C° 0 mm 3 mps 621 mmHg 38%
    15:00 +25°C° 0 mm 3 mps 620 mmHg 38%
    16:00 +22°C° 0 mm 3 mps 620 mmHg 46%
    17:00 +20°C° 0 mm 2 mps 619 mmHg 54%
    18:00 +18°C° 0 mm 2 mps 619 mmHg 62%
    19:00 +17°C° 0.1 mm 2 mps 619 mmHg 68%
    20:00 +16°C° 0.1 mm 2 mps 619 mmHg 75%
    21:00 +14°C° 0.1 mm 1 mps 619 mmHg 82%
    22:00 +14°C° 0 mm 1 mps 619 mmHg 83%
    23:00 +14°C° 0 mm 1 mps 619 mmHg 84%

    23 February, Friday

    Time Temperature Precipitation Wind Pressure Humidity
    00:00 +13°C° 0 mm 1 mps 618 mmHg 85%
    01:00 +13°C° 0 mm 1 mps 618 mmHg 86%
    02:00 +13°C° 0 mm 1 mps 618 mmHg 87%
    03:00 +12°C° 0 mm 1 mps 617 mmHg 88%
    04:00 +12°C° 0 mm 1 mps 617 mmHg 89%
    05:00 +12°C° 0 mm 1 mps 617 mmHg 89%
    06:00 +11°C° 0 mm 1 mps 617 mmHg 90%
    07:00 +14°C° 0 mm 1 mps 619 mmHg 78%
    08:00 +16°C° 0 mm 2 mps 620 mmHg 65%
    09:00 +19°C° 0 mm 2 mps 621 mmHg 53%
    10:00 +21°C° 0 mm 2 mps 621 mmHg 45%
    11:00 +22°C° 0 mm 3 mps 622 mmHg 38%
    12:00 +25°C° 0 mm 3 mps 622 mmHg 30%
    13:00 +25°C° 0 mm 3 mps 621 mmHg 31%
    14:00 +25°C° 0 mm 3 mps 621 mmHg 32%
    15:00 +26°C° 0 mm 3 mps 620 mmHg 33%
    16:00 +24°C° 0 mm 3 mps 619 mmHg 40%
    17:00 +21°C° 0 mm 2 mps 619 mmHg 48%
    18:00 +18°C° 0 mm 2 mps 618 mmHg 55%
    19:00 +17°C° 0.1 mm 2 mps 618 mmHg 63%
    20:00 +16°C° 0.1 mm 1 mps 618 mmHg 70%
    21:00 +14°C° 0.1 mm 1 mps 618 mmHg 77%
    22:00 +14°C° 0 mm 1 mps 618 mmHg 80%
    23:00 +13°C° 0 mm 1 mps 618 mmHg 82%
    Show more